{"data":{"norad_id":63911,"epoch":"2026-09-20T23:22:22.552896Z","epoch_age_seconds":106149,"freshness":"FRESH","line1":"1 63911U 25095X   26263.97387214  .00009982  00000+0  37162-3 0  9990","line2":"2 63911  42.9977 153.3808 0000422 128.8581 231.2308 15.27591987 77646","mean_motion":15.27591987,"eccentricity":4.22e-5,"inclination_deg":42.9977,"raan_deg":153.3808,"arg_perigee_deg":128.8581,"mean_anomaly_deg":231.2308,"bstar":0.00037162,"rev_number":7764,"period_min":94.266009003358,"perigee_km":482.7236623455,"apogee_km":483.30274342263,"semimajor_km":6861.1502028841,"source":"CELESTRAK","updated_at":"2026-09-21T09:00:35.147221Z"}}